SLI333 MMPR-MMMX

Flight info

Callsign SLI333
Flight time 1h 18m
Altitude 39000
Route VOLAT1D VOLAT UT119 ESPOS ESPOS3A
Aircraft E190/M-SDE3GILORVW/S

Departure

Time 2026-04-17 05:31
Airport Puerto Vallarta International Airport (MMPR)

Arrival

Time 2026-04-17 06:49
Airport Mexico City Benito Juárez International Airport (MMMX)
Time Latitude Longitude Altitude Speed Heading
2026-04-17 04:55 20.67925 -105.24665 28 ft 0 kts 47°
2026-04-17 05:16 20.67924 -105.24666 9 ft 2 kts 47°
2026-04-17 05:17 20.67911 -105.24681 28 ft 3 kts 55°
2026-04-17 05:17 20.67903 -105.24700 28 ft 2 kts 91°
2026-04-17 05:17 20.67901 -105.24720 28 ft 3 kts 59°
2026-04-17 05:17 20.67888 -105.24735 28 ft 3 kts 23°
2026-04-17 05:18 20.67883 -105.24738 28 ft 0 kts 13°
2026-04-17 05:23 20.67885 -105.24737 28 ft 1 kts 11°
2026-04-17 05:23 20.67894 -105.24740 28 ft 2 kts 346°
2026-04-17 05:24 20.67916 -105.24755 28 ft 5 kts 326°
2026-04-17 05:24 20.67944 -105.24782 28 ft 6 kts 315°
2026-04-17 05:24 20.67971 -105.24809 28 ft 0 kts 317°
2026-04-17 05:24 20.67976 -105.24814 28 ft 2 kts 317°
2026-04-17 05:25 20.68000 -105.24831 28 ft 6 kts 337°
2026-04-17 05:25 20.68043 -105.24819 28 ft 7 kts 38°
2026-04-17 05:25 20.68082 -105.24778 28 ft 9 kts 45°
2026-04-17 05:25 20.68132 -105.24733 28 ft 10 kts 23°
2026-04-17 05:26 20.68201 -105.24711 28 ft 11 kts 15°
2026-04-17 05:26 20.68277 -105.24685 27 ft 12 kts 16°
2026-04-17 05:26 20.68362 -105.24657 28 ft 13 kts 18°
2026-04-17 05:26 20.68416 -105.24639 28 ft 3 kts 17°
2026-04-17 05:27 20.68443 -105.24631 28 ft 5 kts 17°
2026-04-17 05:27 20.68482 -105.24609 28 ft 7 kts 35°
2026-04-17 05:27 20.68525 -105.24564 28 ft 10 kts 48°
2026-04-17 05:27 20.68580 -105.24500 28 ft 13 kts 47°
2026-04-17 05:28 20.68649 -105.24421 28 ft 16 kts 47°
2026-04-17 05:28 20.68724 -105.24335 28 ft 8 kts 47°
2026-04-17 05:28 20.68770 -105.24282 28 ft 11 kts 47°
2026-04-17 05:28 20.68829 -105.24251 27 ft 9 kts 350°
2026-04-17 05:29 20.68880 -105.24291 27 ft 10 kts 315°
2026-04-17 05:29 20.68923 -105.24340 27 ft 10 kts 313°
2026-04-17 05:29 20.68914 -105.24380 27 ft 3 kts 227°
2026-04-17 05:29 20.68908 -105.24386 28 ft 3 kts 227°
2026-04-17 05:30 20.68860 -105.24442 28 ft 29 kts 227°
2026-04-17 05:30 20.68555 -105.24790 28 ft 98 kts 227°
2026-04-17 05:30 20.67953 -105.25478 35 ft 156 kts 225°
2026-04-17 05:30 20.67156 -105.26389 418 ft 177 kts 225°
2026-04-17 05:31 20.66279 -105.27372 1218 ft 186 kts 227°
2026-04-17 05:31 20.65349 -105.28438 1842 ft 209 kts 227°
2026-04-17 05:31 20.64305 -105.29606 2583 ft 219 kts 227°
2026-04-17 05:31 20.63214 -105.30836 3322 ft 240 kts 228°
2026-04-17 05:32 20.62020 -105.32195 3995 ft 260 kts 228°
2026-04-17 05:32 20.60710 -105.33624 4768 ft 278 kts 221°
2026-04-17 05:32 20.58942 -105.34517 5681 ft 288 kts 190°
2026-04-17 05:32 20.56946 -105.34393 6677 ft 291 kts 161°
2026-04-17 05:33 20.55723 -105.33798 7327 ft 292 kts 151°
2026-04-17 05:33 20.53907 -105.32787 8257 ft 296 kts 153°
2026-04-17 05:33 20.52085 -105.31775 9302 ft 295 kts 153°
2026-04-17 05:33 20.50269 -105.30747 10282 ft 299 kts 153°
2026-04-17 05:34 20.47732 -105.29317 10916 ft 319 kts 153°
2026-04-17 05:34 20.46401 -105.28563 11483 ft 320 kts 152°
2026-04-17 05:34 20.44433 -105.27446 12334 ft 321 kts 152°
2026-04-17 05:34 20.42656 -105.26007 13088 ft 325 kts 130°
2026-04-17 05:35 20.41603 -105.23872 13891 ft 329 kts 108°
2026-04-17 05:35 20.41067 -105.21514 14545 ft 335 kts 102°
2026-04-17 05:35 20.40663 -105.19046 15217 ft 340 kts 101°
2026-04-17 05:35 20.40310 -105.16531 15882 ft 345 kts 99°
2026-04-17 05:36 20.40097 -105.13963 16531 ft 351 kts 94°
2026-04-17 05:36 20.39982 -105.11340 17130 ft 356 kts 94°
2026-04-17 05:36 20.39872 -105.08685 17707 ft 361 kts 94°
2026-04-17 05:36 20.39771 -105.05997 18272 ft 365 kts 94°
2026-04-17 05:37 20.39668 -105.03270 18782 ft 369 kts 94°
2026-04-17 05:37 20.39565 -105.00561 19276 ft 372 kts 93°
2026-04-17 05:37 20.39463 -104.97792 19773 ft 376 kts 94°
2026-04-17 05:37 20.39353 -104.95001 20287 ft 379 kts 94°
2026-04-17 05:38 20.39244 -104.92174 20758 ft 384 kts 94°
2026-04-17 05:38 20.39133 -104.89311 21195 ft 389 kts 94°
2026-04-17 05:38 20.39021 -104.86416 21639 ft 392 kts 94°
2026-04-17 05:38 20.38907 -104.83496 22075 ft 396 kts 94°
2026-04-17 05:39 20.38791 -104.80550 22505 ft 399 kts 94°
2026-04-17 05:39 20.38674 -104.77576 22923 ft 403 kts 94°
2026-04-17 05:39 20.38556 -104.74569 23314 ft 406 kts 94°
2026-04-17 05:39 20.38433 -104.71541 23694 ft 410 kts 94°
2026-04-17 05:40 20.38312 -104.68492 24010 ft 412 kts 94°
2026-04-17 05:40 20.38188 -104.65423 24323 ft 415 kts 94°
2026-04-17 05:40 20.38066 -104.62374 24640 ft 417 kts 94°
2026-04-17 05:40 20.37940 -104.59269 24919 ft 420 kts 95°
2026-04-17 05:41 20.37813 -104.56142 25202 ft 423 kts 94°
2026-04-17 05:41 20.37685 -104.53002 25486 ft 425 kts 95°
2026-04-17 05:41 20.37553 -104.49845 25788 ft 428 kts 95°
2026-04-17 05:41 20.37422 -104.46668 26050 ft 430 kts 95°
2026-04-17 05:42 20.37290 -104.43477 26350 ft 432 kts 95°
2026-04-17 05:42 20.37157 -104.40302 26627 ft 435 kts 95°
2026-04-17 05:42 20.37024 -104.37072 26916 ft 437 kts 95°
2026-04-17 05:42 20.36874 -104.33834 27198 ft 438 kts 97°
2026-04-17 05:43 20.36454 -104.30611 27464 ft 439 kts 103°
2026-04-17 05:43 20.35855 -104.27414 27731 ft 440 kts 107°
2026-04-17 05:43 20.34993 -104.24296 27983 ft 440 kts 110°
2026-04-17 05:43 20.34078 -104.21172 28256 ft 442 kts 111°
2026-04-17 05:44 20.33131 -104.18052 28528 ft 444 kts 111°
2026-04-17 05:44 20.32176 -104.14915 28772 ft 446 kts 111°
2026-04-17 05:44 20.31215 -104.11758 29048 ft 448 kts 111°
2026-04-17 05:44 20.30245 -104.08582 29298 ft 450 kts 111°
2026-04-17 05:45 20.29277 -104.05406 29546 ft 452 kts 111°
2026-04-17 05:45 20.28305 -104.02222 29799 ft 454 kts 111°
2026-04-17 05:45 20.26337 -103.95781 30017 ft 463 kts 111°
2026-04-17 05:46 20.25340 -103.92517 30273 ft 463 kts 111°
2026-04-17 05:46 20.24340 -103.89251 30523 ft 463 kts 112°
2026-04-17 05:46 20.23341 -103.85989 30794 ft 463 kts 112°
2026-04-17 05:46 20.22341 -103.82723 31046 ft 463 kts 112°
2026-04-17 05:47 20.21339 -103.79460 31290 ft 463 kts 112°
2026-04-17 05:47 20.20339 -103.76201 31547 ft 463 kts 112°
2026-04-17 05:47 20.19340 -103.72942 31784 ft 463 kts 112°
2026-04-17 05:47 20.18347 -103.69718 32016 ft 463 kts 112°
2026-04-17 05:48 20.17345 -103.66460 32249 ft 463 kts 112°
2026-04-17 05:48 20.16340 -103.63192 32471 ft 463 kts 112°
2026-04-17 05:48 20.15338 -103.59937 32677 ft 463 kts 112°
2026-04-17 05:48 20.14332 -103.56677 32837 ft 464 kts 112°
2026-04-17 05:49 20.13324 -103.53410 33064 ft 465 kts 112°
2026-04-17 05:49 20.12319 -103.50148 33300 ft 464 kts 112°
2026-04-17 05:49 20.11310 -103.46885 33515 ft 464 kts 112°
2026-04-17 05:49 20.10299 -103.43616 33727 ft 465 kts 113°
2026-04-17 05:50 20.09284 -103.40331 33945 ft 465 kts 113°
2026-04-17 05:50 20.08284 -103.37100 34122 ft 465 kts 113°
2026-04-17 05:50 20.07270 -103.33831 34316 ft 465 kts 113°
2026-04-17 05:50 20.06258 -103.30565 34512 ft 465 kts 113°
2026-04-17 05:51 20.05247 -103.27305 34697 ft 464 kts 113°
2026-04-17 05:51 20.04232 -103.24035 34879 ft 464 kts 113°
2026-04-17 05:51 20.03216 -103.20765 35064 ft 464 kts 113°
2026-04-17 05:51 20.02204 -103.17511 35250 ft 464 kts 113°
2026-04-17 05:52 20.01192 -103.14254 35419 ft 463 kts 113°
2026-04-17 05:52 20.00189 -103.11037 35580 ft 464 kts 113°
2026-04-17 05:52 19.99175 -103.07785 35746 ft 464 kts 113°
2026-04-17 05:52 19.98159 -103.04524 35897 ft 464 kts 113°
2026-04-17 05:53 19.97143 -103.01268 36100 ft 464 kts 113°
2026-04-17 05:53 19.96131 -102.98011 36296 ft 463 kts 113°
2026-04-17 05:53 19.95100 -102.94772 36462 ft 461 kts 117°
2026-04-17 05:53 19.93920 -102.91606 36640 ft 461 kts 116°
2026-04-17 05:54 19.92731 -102.88438 36819 ft 460 kts 117°
2026-04-17 05:54 19.91544 -102.85319 36971 ft 460 kts 117°
2026-04-17 05:54 19.90344 -102.82166 37167 ft 459 kts 117°
2026-04-17 05:54 19.89143 -102.79015 37328 ft 460 kts 117°
2026-04-17 05:55 19.87942 -102.75861 37516 ft 459 kts 117°
2026-04-17 05:55 19.86740 -102.72711 37681 ft 459 kts 117°
2026-04-17 05:55 19.85553 -102.69599 37861 ft 459 kts 117°
2026-04-17 05:55 19.84353 -102.66455 38043 ft 459 kts 117°
2026-04-17 05:56 19.83154 -102.63314 38225 ft 458 kts 117°
2026-04-17 05:56 19.81951 -102.60166 38419 ft 458 kts 117°
2026-04-17 05:56 19.80754 -102.57031 38612 ft 458 kts 117°
2026-04-17 05:56 19.79556 -102.53902 38776 ft 458 kts 117°
2026-04-17 05:57 19.78369 -102.50792 38879 ft 447 kts 117°
2026-04-17 05:57 19.77196 -102.47737 38952 ft 447 kts 117°
2026-04-17 05:57 19.74852 -102.41621 39034 ft 453 kts 117°
2026-04-17 05:58 19.72452 -102.35365 39051 ft 461 kts 117°
2026-04-17 05:59 19.68829 -102.25936 39031 ft 457 kts 117°
2026-04-17 05:59 19.66422 -102.19684 39045 ft 458 kts 117°
2026-04-17 06:00 19.64026 -102.13459 39046 ft 458 kts 117°
2026-04-17 06:00 19.61609 -102.07198 39051 ft 457 kts 117°
2026-04-17 06:01 19.59197 -102.00953 39051 ft 457 kts 117°
2026-04-17 06:01 19.56784 -101.94713 39050 ft 457 kts 117°
2026-04-17 06:02 19.54385 -101.88516 39039 ft 456 kts 118°
2026-04-17 06:02 19.51968 -101.82283 39064 ft 456 kts 118°
2026-04-17 06:03 19.49557 -101.76067 39046 ft 456 kts 118°
2026-04-17 06:03 19.47144 -101.69857 39063 ft 455 kts 118°
2026-04-17 06:04 19.44732 -101.63658 39044 ft 455 kts 118°
2026-04-17 06:04 19.42316 -101.57455 39043 ft 455 kts 118°
2026-04-17 06:05 19.39917 -101.51301 39032 ft 455 kts 118°
2026-04-17 06:05 19.37497 -101.45102 39036 ft 455 kts 118°
2026-04-17 06:06 19.35074 -101.38902 39013 ft 455 kts 118°
2026-04-17 06:06 19.32649 -101.32705 38992 ft 455 kts 118°
2026-04-17 06:07 19.30224 -101.26511 39003 ft 456 kts 118°
2026-04-17 06:07 19.27790 -101.20302 38970 ft 455 kts 118°
2026-04-17 06:08 19.25358 -101.14112 38964 ft 456 kts 118°
2026-04-17 06:08 19.22938 -101.07955 38960 ft 455 kts 118°
2026-04-17 06:09 19.20505 -101.01772 38938 ft 455 kts 118°
2026-04-17 06:09 19.18068 -100.95589 38937 ft 455 kts 118°
2026-04-17 06:10 19.15636 -100.89424 38919 ft 453 kts 118°
2026-04-17 06:10 19.13200 -100.83253 38929 ft 454 kts 117°
2026-04-17 06:11 19.10764 -100.77091 38909 ft 453 kts 117°
2026-04-17 06:11 19.08333 -100.70948 38921 ft 453 kts 118°
2026-04-17 06:12 19.05916 -100.64850 38913 ft 452 kts 117°
2026-04-17 06:12 19.03484 -100.58719 38918 ft 452 kts 117°
2026-04-17 06:13 19.01053 -100.52595 38921 ft 451 kts 117°
2026-04-17 06:13 18.98620 -100.46477 38934 ft 451 kts 117°
2026-04-17 06:14 18.96191 -100.40374 38925 ft 450 kts 118°
2026-04-17 06:14 18.93778 -100.34319 38948 ft 449 kts 118°
2026-04-17 06:15 18.91351 -100.28231 38943 ft 448 kts 118°
2026-04-17 06:15 18.88923 -100.22154 38963 ft 448 kts 118°
2026-04-17 06:16 18.86510 -100.16129 38977 ft 448 kts 118°
2026-04-17 06:16 18.84088 -100.10076 38978 ft 446 kts 118°
2026-04-17 06:17 18.81666 -100.04034 38988 ft 447 kts 118°
2026-04-17 06:17 18.79240 -99.97991 38994 ft 446 kts 118°
2026-04-17 06:18 18.76833 -99.92005 39001 ft 446 kts 118°
2026-04-17 06:18 18.74427 -99.85972 38999 ft 447 kts 114°
2026-04-17 06:18 18.73562 -99.82794 38879 ft 455 kts 105°
2026-04-17 06:19 18.73156 -99.79448 38100 ft 463 kts 95°
2026-04-17 06:19 18.73264 -99.76035 37276 ft 468 kts 85°
2026-04-17 06:19 18.73891 -99.72657 36485 ft 471 kts 76°
2026-04-17 06:19 18.75024 -99.69401 35736 ft 473 kts 66°
2026-04-17 06:20 18.76630 -99.66376 35013 ft 474 kts 56°
2026-04-17 06:20 18.77913 -99.64503 34544 ft 473 kts 53°
2026-04-17 06:20 18.80541 -99.60829 33566 ft 472 kts 54°
2026-04-17 06:20 18.81821 -99.58920 33031 ft 471 kts 56°
2026-04-17 06:21 18.83613 -99.56070 32329 ft 468 kts 57°
2026-04-17 06:21 18.85321 -99.53193 32192 ft 458 kts 58°
2026-04-17 06:21 18.86838 -99.50214 32076 ft 466 kts 66°
2026-04-17 06:21 18.88195 -99.47044 31159 ft 476 kts 65°
2026-04-17 06:22 18.89554 -99.43852 30262 ft 476 kts 65°
2026-04-17 06:22 18.90008 -99.42777 29939 ft 476 kts 65°
2026-04-17 06:22 18.91358 -99.39587 28911 ft 475 kts 65°
2026-04-17 06:22 18.92696 -99.36412 28061 ft 470 kts 65°
2026-04-17 06:23 18.93995 -99.33334 28141 ft 448 kts 65°
2026-04-17 06:23 18.96291 -99.27162 28274 ft 457 kts 76°
2026-04-17 06:24 18.96849 -99.20504 27847 ft 456 kts 95°
2026-04-17 06:24 18.96387 -99.17199 26869 ft 455 kts 104°
2026-04-17 06:24 18.95433 -99.14073 25940 ft 453 kts 114°
2026-04-17 06:24 18.93987 -99.11132 25026 ft 449 kts 123°
2026-04-17 06:25 18.92072 -99.08639 24120 ft 424 kts 140°
2026-04-17 06:25 18.89712 -99.06937 23176 ft 401 kts 149°
2026-04-17 06:25 18.87621 -99.05039 22140 ft 396 kts 129°
2026-04-17 06:25 18.86295 -99.02504 21174 ft 400 kts 108°
2026-04-17 06:26 18.85891 -98.99578 20251 ft 404 kts 88°
2026-04-17 06:26 18.86468 -98.96700 19358 ft 397 kts 67°
2026-04-17 06:26 18.87893 -98.94325 18497 ft 384 kts 46°
2026-04-17 06:26 18.89999 -98.92684 17528 ft 372 kts 24°
2026-04-17 06:27 18.92461 -98.92022 16553 ft 363 kts
2026-04-17 06:27 18.94915 -98.92409 15606 ft 355 kts 339°
2026-04-17 06:27 18.97003 -98.93773 14695 ft 352 kts 317°
2026-04-17 06:27 18.98718 -98.95603 13822 ft 349 kts 314°
2026-04-17 06:28 19.00391 -98.97398 12838 ft 346 kts 319°
2026-04-17 06:28 19.02416 -98.98730 11866 ft 342 kts 335°
2026-04-17 06:28 19.04627 -98.99613 10931 ft 334 kts 343°
2026-04-17 06:28 19.06836 -99.00218 10038 ft 323 kts 348°
2026-04-17 06:29 19.08735 -99.00611 11310 ft 259 kts 350°
2026-04-17 06:29 19.10496 -99.00870 12448 ft 252 kts 356°
2026-04-17 06:29 19.12136 -99.00937 13654 ft 212 kts 358°
2026-04-17 06:29 19.13595 -99.01000 14147 ft 229 kts 357°
2026-04-17 06:30 19.15216 -99.01079 14193 ft 234 kts 358°
2026-04-17 06:30 19.16787 -99.01317 14223 ft 220 kts 341°
2026-04-17 06:30 19.18224 -99.01990 13441 ft 243 kts 328°
2026-04-17 06:30 19.19527 -99.03037 13476 ft 223 kts 319°
2026-04-17 06:31 19.20637 -99.04136 13286 ft 218 kts 316°
2026-04-17 06:31 19.21667 -99.05250 13208 ft 202 kts 313°
2026-04-17 06:31 19.22600 -99.06345 13269 ft 204 kts 312°
2026-04-17 06:31 19.23558 -99.07505 13357 ft 218 kts 312°
2026-04-17 06:32 19.24599 -99.08738 13398 ft 232 kts 313°
2026-04-17 06:32 19.25718 -99.10026 13516 ft 242 kts 314°
2026-04-17 06:32 19.26891 -99.11354 13613 ft 252 kts 310°
2026-04-17 06:32 19.27835 -99.12859 14081 ft 243 kts 297°
2026-04-17 06:33 19.28588 -99.14419 14356 ft 243 kts 306°
2026-04-17 06:33 19.29698 -99.15828 14427 ft 250 kts 314°
2026-04-17 06:33 19.30919 -99.17116 14509 ft 244 kts 319°
2026-04-17 06:33 19.32344 -99.18148 13983 ft 253 kts 335°
2026-04-17 06:34 19.34079 -99.18606 13114 ft 263 kts 354°
2026-04-17 06:34 19.35931 -99.18572 12374 ft 267 kts 13°
2026-04-17 06:34 19.37610 -99.17743 11265 ft 279 kts 40°
2026-04-17 06:34 19.38772 -99.16039 9930 ft 292 kts 70°
2026-04-17 06:35 19.39516 -99.14085 9189 ft 275 kts 64°
2026-04-17 06:35 19.40430 -99.12506 9212 ft 233 kts 56°
2026-04-17 06:35 19.41313 -99.11055 9416 ft 234 kts 58°
2026-04-17 06:35 19.42183 -99.09535 10002 ft 249 kts 60°
2026-04-17 06:36 19.43072 -99.07962 10973 ft 243 kts 60°
2026-04-17 06:36 19.43901 -99.06480 12180 ft 231 kts 60°
2026-04-17 06:36 19.44750 -99.04903 12258 ft 272 kts 63°
2026-04-17 06:36 19.45694 -99.02992 12293 ft 307 kts 63°
2026-04-17 06:37 19.46748 -99.00930 12453 ft 317 kts 61°
2026-04-17 06:37 19.47596 -98.98934 12520 ft 281 kts 79°
2026-04-17 06:37 19.47513 -98.97010 12550 ft 250 kts 111°
2026-04-17 06:37 19.46641 -98.95540 12563 ft 224 kts 130°
2026-04-17 06:38 19.45642 -98.94350 12559 ft 211 kts 133°
2026-04-17 06:38 19.44587 -98.93277 12571 ft 213 kts 150°
2026-04-17 06:38 19.43159 -98.92915 12636 ft 217 kts 189°
2026-04-17 06:38 19.41748 -98.93468 12700 ft 218 kts 208°
2026-04-17 06:39 19.40424 -98.94258 12700 ft 217 kts 211°
2026-04-17 06:39 19.39142 -98.95081 12700 ft 224 kts 211°
2026-04-17 06:39 19.37713 -98.96022 12778 ft 259 kts 212°
2026-04-17 06:39 19.36129 -98.97073 12821 ft 274 kts 212°
2026-04-17 06:40 19.34507 -98.98153 12810 ft 275 kts 212°
2026-04-17 06:40 19.32890 -98.99231 12771 ft 274 kts 212°
2026-04-17 06:40 19.31272 -99.00308 12501 ft 276 kts 212°
2026-04-17 06:40 19.29652 -99.01390 12009 ft 272 kts 212°
2026-04-17 06:41 19.28082 -99.02444 11499 ft 259 kts 212°
2026-04-17 06:41 19.26629 -99.03426 10980 ft 243 kts 212°
2026-04-17 06:41 19.25245 -99.04367 10451 ft 230 kts 212°
2026-04-17 06:41 19.23932 -99.05264 9924 ft 219 kts 213°
2026-04-17 06:42 19.23114 -99.06514 9894 ft 209 kts 263°
2026-04-17 06:42 19.23402 -99.08030 10059 ft 217 kts 297°
2026-04-17 06:42 19.24271 -99.09353 9689 ft 217 kts 312°
2026-04-17 06:42 19.25360 -99.10446 9795 ft 217 kts 320°
2026-04-17 06:43 19.26599 -99.11377 9742 ft 218 kts 329°
2026-04-17 06:43 19.27948 -99.12110 9706 ft 218 kts 336°
2026-04-17 06:43 19.29212 -99.12923 9661 ft 215 kts 313°
2026-04-17 06:43 19.30058 -99.14228 9681 ft 216 kts 298°
2026-04-17 06:44 19.30763 -99.15537 9742 ft 195 kts 299°
2026-04-17 06:44 19.31423 -99.16763 9673 ft 199 kts 298°
2026-04-17 06:44 19.32153 -99.18115 9702 ft 217 kts 299°
2026-04-17 06:44 19.32904 -99.19502 9592 ft 217 kts 299°
2026-04-17 06:45 19.33720 -99.20836 9450 ft 213 kts 316°
2026-04-17 06:45 19.35022 -99.21381 9277 ft 203 kts
2026-04-17 06:45 19.36156 -99.20653 9085 ft 194 kts 59°
2026-04-17 06:45 19.36680 -99.19369 8910 ft 188 kts 66°
2026-04-17 06:46 19.37324 -99.18150 8776 ft 191 kts 55°
2026-04-17 06:46 19.38022 -99.16986 8734 ft 188 kts 59°
2026-04-17 06:46 19.38646 -99.15808 8728 ft 176 kts 58°
2026-04-17 06:46 19.39261 -99.14726 8705 ft 163 kts 57°
2026-04-17 06:47 19.39821 -99.13732 8514 ft 148 kts 58°
2026-04-17 06:47 19.40331 -99.12815 8401 ft 149 kts 58°
2026-04-17 06:47 19.40866 -99.11865 8234 ft 151 kts 58°
2026-04-17 06:47 19.41403 -99.10905 8010 ft 151 kts 58°
2026-04-17 06:48 19.41942 -99.09941 7780 ft 154 kts 57°
2026-04-17 06:48 19.42486 -99.08970 7520 ft 153 kts 58°
2026-04-17 06:48 19.43009 -99.08027 7327 ft 143 kts 58°
2026-04-17 06:48 19.43456 -99.07235 7301 ft 107 kts 64°
2026-04-17 06:49 19.43759 -99.06695 7302 ft 61 kts 60°
2026-04-17 06:49 19.43925 -99.06401 7301 ft 25 kts 60°
2026-04-17 06:49 19.43965 -99.06227 7301 ft 24 kts 84°
2026-04-17 06:49 19.43968 -99.06118 7301 ft 0 kts 90°
2026-04-17 06:50 19.43968 -99.06117 7301 ft 0 kts 90°
2026-04-17 06:50 19.43968 -99.06113 7301 ft 1 kts 90°
2026-04-17 06:50 19.43966 -99.06101 7301 ft 3 kts 102°
2026-04-17 06:50 19.43951 -99.06078 7302 ft 5 kts 141°
2026-04-17 06:51 19.43918 -99.06086 7301 ft 6 kts 218°
2026-04-17 06:51 19.43885 -99.06125 7301 ft 7 kts 237°
2026-04-17 06:51 19.43861 -99.06175 7301 ft 9 kts 241°
2026-04-17 06:51 19.43825 -99.06239 7301 ft 11 kts 238°
2026-04-17 06:52 19.43786 -99.06309 7301 ft 11 kts 239°
2026-04-17 06:52 19.43746 -99.06381 7301 ft 11 kts 240°
2026-04-17 06:52 19.43705 -99.06454 7301 ft 12 kts 239°
2026-04-17 06:52 19.43664 -99.06528 7301 ft 12 kts 239°
2026-04-17 06:53 19.43622 -99.06604 7302 ft 12 kts 239°
2026-04-17 06:53 19.43577 -99.06679 7301 ft 12 kts 231°
2026-04-17 06:53 19.43508 -99.06726 7301 ft 12 kts 207°
2026-04-17 06:53 19.43442 -99.06772 7301 ft 11 kts 226°
2026-04-17 06:54 19.43413 -99.06842 7301 ft 11 kts 256°
2026-04-17 06:54 19.43378 -99.06907 7302 ft 10 kts 239°
2026-04-17 06:54 19.43341 -99.06971 7301 ft 10 kts 239°
2026-04-17 06:54 19.43303 -99.07037 7301 ft 11 kts 239°
2026-04-17 06:55 19.43271 -99.07106 7301 ft 10 kts 256°
2026-04-17 06:55 19.43262 -99.07177 7301 ft 10 kts 264°
2026-04-17 06:55 19.43250 -99.07248 7301 ft 10 kts 253°
2026-04-17 06:55 19.43220 -99.07312 7302 ft 10 kts 239°
2026-04-17 06:56 19.43184 -99.07374 7301 ft 10 kts 239°
2026-04-17 06:56 19.43148 -99.07438 7301 ft 10 kts 238°
2026-04-17 06:56 19.43110 -99.07505 7301 ft 11 kts 240°
2026-04-17 06:56 19.43068 -99.07578 7301 ft 12 kts 238°
2026-04-17 06:57 19.43023 -99.07657 7301 ft 13 kts 239°
2026-04-17 06:57 19.42972 -99.07741 7302 ft 14 kts 230°
2026-04-17 06:57 19.42901 -99.07813 7301 ft 14 kts 216°
2026-04-17 06:57 19.42813 -99.07865 7301 ft 15 kts 209°
2026-04-17 06:58 19.42742 -99.07944 7302 ft 15 kts 239°
2026-04-17 06:58 19.42688 -99.08042 7302 ft 15 kts 239°
2026-04-17 06:58 19.42642 -99.08123 7302 ft 5 kts 239°
2026-04-17 06:58 19.42613 -99.08148 7301 ft 6 kts 194°
2026-04-17 06:59 19.42577 -99.08133 7301 ft 6 kts 150°
2026-04-17 06:59 19.42532 -99.08105 7301 ft 9 kts 150°
2026-04-17 06:59 19.42470 -99.08067 7301 ft 12 kts 149°
2026-04-17 06:59 19.42388 -99.08014 7301 ft 16 kts 147°
2026-04-17 07:00 19.42332 -99.07975 7301 ft 8 kts 184°
2026-04-17 07:00 19.42294 -99.07999 7301 ft 6 kts 212°
2026-04-17 07:00 19.42289 -99.08002 7301 ft 0 kts 212°